Weather reports worldwide

Advertisment
Braemar, United Kingdom (99089): temperature & dewpoint: 21.04.2017 04:00:00 - 27.04.2017 04:00:00 (BST)Braemar, United Kingdom (99089): temperature -20cm & temperature -100cm: 21.04.2017 04:00:00 - 27.04.2017 04:00:00 (BST)Braemar, United Kingdom (99089): precipitation: 21.04.2017 04:00:00 - 27.04.2017 04:00:00 (BST)
Date & Time tt [°C] td [°C] tt -20cm [°C] tt -100cm [°C] rr [mm]
27.04.2017 04:00:00 - - - - 0,0
27.04.2017 03:00:00 4,8 1,6 - - 0,0
27.04.2017 02:00:00 5,3 2,1 - - 0,0
27.04.2017 01:00:00 5,4 2,1 - - 0,0
27.04.2017 00:00:00 5,4 1,6 - - 0,0
26.04.2017 23:00:00 4,8 1,7 - - 0,2
26.04.2017 22:00:00 4,1 1,5 - - 0,0
26.04.2017 21:00:00 4,8 0,9 - - 0,0
26.04.2017 20:00:00 5,2 0,9 - - 0,0
26.04.2017 19:00:00 5,8 0,0 - - 0,0
26.04.2017 18:00:00 6,2 -0,6 - - 0,0
26.04.2017 17:00:00 5,9 -1,5 - - 0,0
26.04.2017 16:00:00 5,9 -1,2 - - 0,0
26.04.2017 15:00:00 5,0 -1,4 - - 0,0
26.04.2017 14:00:00 4,9 -2,2 - - 0,0
26.04.2017 13:00:00 4,1 -2,8 - - 0,0
26.04.2017 12:00:00 3,5 -2,8 - - 0,0
26.04.2017 11:00:00 3,1 -2,9 - - 0,0
26.04.2017 10:00:00 2,0 -3,1 5,7 6,9 0,0
26.04.2017 09:00:00 1,5 -3,8 - - 0,2
26.04.2017 08:00:00 1,1 -4,3 - - 0,0
26.04.2017 07:00:00 0,4 -4,8 - - 0,0
26.04.2017 06:00:00 0,5 -4,8 - - 0,0
26.04.2017 05:00:00 0,7 -4,3 - - 0,0
26.04.2017 04:00:00 0,7 -3,2 - - 0,0
26.04.2017 03:00:00 0,5 -2,6 - - 0,0
26.04.2017 02:00:00 0,4 -2,9 - - 0,0
26.04.2017 01:00:00 0,3 -2,7 - - 0,0
26.04.2017 00:00:00 0,4 -2,8 - - 0,0
25.04.2017 23:00:00 1,2 -3,4 - - 0,0
25.04.2017 22:00:00 1,2 -3,2 - - 0,0
25.04.2017 21:00:00 1,4 -2,7 - - 0,0
25.04.2017 20:00:00 1,6 -3,1 - - 0,0
25.04.2017 19:00:00 2,1 -2,4 - - 0,0
25.04.2017 18:00:00 2,3 -0,9 - - 0,2
25.04.2017 17:00:00 2,8 -2,1 - - 0,2
25.04.2017 16:00:00 3,6 -1,8 - - 0,0
25.04.2017 15:00:00 3,3 -1,2 - - 0,2
25.04.2017 14:00:00 2,1 -1,4 - - 0,0
25.04.2017 13:00:00 1,7 -1,2 - - 0,2
25.04.2017 12:00:00 1,9 -0,3 - - 1,6
25.04.2017 11:00:00 1,2 -0,5 - - 2,4
25.04.2017 10:00:00 1,0 -1,3 6,7 7,0 0,0
25.04.2017 09:00:00 0,3 -0,7 - - 0,0
25.04.2017 08:00:00 -0,1 -0,3 - - 0,0
25.04.2017 07:00:00 -0,2 -1,2 - - 0,0
25.04.2017 06:00:00 0,4 -1,2 - - 0,0
25.04.2017 05:00:00 0,4 -1,7 - - 0,0
25.04.2017 04:00:00 0,5 -1,1 - - 0,0
25.04.2017 03:00:00 0,6 -1,8 - - 0,0
25.04.2017 02:00:00 0,4 -2,3 - - 0,0
25.04.2017 01:00:00 0,2 -3,2 - - 0,0
25.04.2017 00:00:00 -0,2 -3,9 - - 0,0
24.04.2017 23:00:00 -0,8 -3,5 - - 0,0
24.04.2017 22:00:00 0,1 -1,8 - - 0,0
24.04.2017 21:00:00 0,1 -1,8 - - 0,0
24.04.2017 20:00:00 1,4 -4,1 - - 0,0
24.04.2017 19:00:00 1,2 -3,8 - - 0,0
24.04.2017 18:00:00 0,9 -3,9 - - 0,2
24.04.2017 17:00:00 0,7 -3,6 - - 0,2
24.04.2017 16:00:00 -0,5 -2,8 - - 0,2
24.04.2017 15:00:00 -0,5 -1,5 - - 0,2
24.04.2017 14:00:00 0,8 -1,5 - - 0,4
24.04.2017 13:00:00 2,6 -1,0 - - 0,2
24.04.2017 12:00:00 3,5 1,1 - - 0,0
24.04.2017 11:00:00 3,8 -2,1 - - 0,0
24.04.2017 10:00:00 4,4 -1,9 7,5 7,0 0,0
24.04.2017 09:00:00 3,6 -2,2 - - 0,0
24.04.2017 08:00:00 2,8 -3,2 - - 0,0
24.04.2017 07:00:00 1,8 -4,2 - - 0,0
24.04.2017 06:00:00 2,0 -3,0 - - 0,2
24.04.2017 05:00:00 2,6 -1,6 - - 0,0
24.04.2017 04:00:00 3,0 -1,7 - - 0,0
24.04.2017 03:00:00 3,3 -1,4 - - 0,0
24.04.2017 02:00:00 3,6 -0,7 - - 0,0
24.04.2017 01:00:00 4,3 0,4 - - 0,8
24.04.2017 00:00:00 5,9 4,6 - - 0,4
23.04.2017 23:00:00 6,0 4,5 - - 0,2
23.04.2017 22:00:00 6,1 2,7 - - 0,0
23.04.2017 21:00:00 6,5 2,0 - - 0,0
23.04.2017 20:00:00 7,2 2,1 - - 0,0
23.04.2017 19:00:00 7,9 1,3 - - 0,0
23.04.2017 18:00:00 8,6 1,2 - - 0,0
23.04.2017 17:00:00 8,8 0,2 - - 0,0
23.04.2017 16:00:00 9,2 0,7 - - 0,0
23.04.2017 15:00:00 10,0 1,2 - - 0,0
23.04.2017 14:00:00 9,7 1,1 - - 0,0
23.04.2017 13:00:00 8,5 0,7 - - 0,0
23.04.2017 12:00:00 8,6 1,0 - - 0,0
23.04.2017 11:00:00 7,5 1,0 - - 0,0
23.04.2017 10:00:00 6,2 -0,2 7,5 7,0 0,0
23.04.2017 09:00:00 5,2 0,2 - - 0,0
23.04.2017 08:00:00 4,0 -0,3 - - 0,0
23.04.2017 07:00:00 3,3 -0,4 - - 0,0
23.04.2017 06:00:00 2,1 -0,6 - - 0,0
23.04.2017 05:00:00 1,9 -0,5 - - 0,0
23.04.2017 04:00:00 2,6 -0,1 - - 0,0
23.04.2017 03:00:00 1,4 -0,7 - - 0,0
23.04.2017 02:00:00 3,0 0,0 - - 0,0
23.04.2017 01:00:00 2,2 -0,8 - - 0,0
23.04.2017 00:00:00 1,9 -1,3 - - 0,0
22.04.2017 23:00:00 2,2 -1,9 - - 0,0
22.04.2017 22:00:00 3,4 -2,2 - - 0,0
22.04.2017 21:00:00 4,5 -1,5 - - 0,0
22.04.2017 20:00:00 5,3 -0,8 - - 0,0
22.04.2017 19:00:00 6,0 -1,1 - - 0,0
22.04.2017 18:00:00 6,6 -1,4 - - 0,0
22.04.2017 17:00:00 6,5 0,3 - - 0,0
22.04.2017 16:00:00 4,5 1,5 - - 0,4
22.04.2017 15:00:00 5,0 0,4 - - 0,0
22.04.2017 14:00:00 6,3 -2,1 - - 0,0
22.04.2017 13:00:00 6,9 -1,0 - - 0,0
22.04.2017 12:00:00 5,6 -3,1 - - 0,0
22.04.2017 11:00:00 5,0 -3,3 - - 0,0
22.04.2017 10:00:00 4,1 -1,8 8,0 7,0 0,0
22.04.2017 09:00:00 3,7 -3,1 - - 0,0
22.04.2017 08:00:00 3,3 -2,3 - - -
22.04.2017 07:00:00 2,6 -1,0 - - 0,0
22.04.2017 06:00:00 3,3 -2,0 - - 0,0
22.04.2017 05:00:00 3,3 -2,1 - - 0,0
22.04.2017 04:00:00 3,6 -1,9 - - 0,0
22.04.2017 03:00:00 3,7 -2,2 - - 0,0
22.04.2017 02:00:00 3,6 -1,9 - - 0,0
22.04.2017 01:00:00 3,8 -0,7 - - -
22.04.2017 00:00:00 4,1 -1,8 - - 0,0
21.04.2017 23:00:00 3,9 -2,7 - - 0,0
21.04.2017 22:00:00 4,7 -1,0 - - 0,0
21.04.2017 21:00:00 5,0 -1,9 - - 0,0
21.04.2017 20:00:00 5,7 -1,9 - - 0,0
21.04.2017 19:00:00 6,7 -1,6 - - 0,0
21.04.2017 18:00:00 7,0 0,7 - - 0,2
21.04.2017 17:00:00 7,5 2,1 - - 0,0
21.04.2017 16:00:00 7,9 2,8 - - 0,0
21.04.2017 15:00:00 9,4 3,0 - - 0,0
21.04.2017 14:00:00 9,7 2,8 - - 0,0
21.04.2017 13:00:00 9,2 2,2 - - 0,0
21.04.2017 12:00:00 9,1 4,6 - - 0,0
21.04.2017 11:00:00 8,1 4,1 - - 0,2
21.04.2017 10:00:00 8,7 4,9 8,0 6,7 0,2
21.04.2017 09:00:00 9,5 8,4 - - 0,6
21.04.2017 08:00:00 9,0 7,6 - - 0,2
21.04.2017 07:00:00 9,1 6,4 - - 0,0
21.04.2017 06:00:00 9,0 6,1 - - 0,0
21.04.2017 05:00:00 9,1 6,4 - - 0,0
21.04.2017 04:00:00 9,2 6,0 - - 0,0

tt = temperature
td = dewpoint
tt -20cm = temperature -20cm
tt -100cm = temperature -100cm
rr = precipitation

Next stations